This is the latest recevied weather packets stored in our database for station/object KN4FVH. If no packets are shown the sender has not sent any weather packets the latest 1 day(s).
| Time | Temp. | Humidity | Pressure | Rain* | Wind** | Luminosity | Snow |
|---|---|---|---|---|---|---|---|
| 1778028490 | 22.22° C | 58% | 1016.1 hPa | 0 mm | 0 m/s | 0 W/m² | - |
| 1778028188 | 22.22° C | 58% | 1016.3 hPa | 0 mm | 0.45 m/s, 163° | 0 W/m² | - |
| 1778027884 | 22.22° C | 58% | 1015.9 hPa | 0 mm | 0.45 m/s, 149° | 0 W/m² | - |
| 1778027580 | 22.22° C | 58% | 1015.9 hPa | 0 mm | 0.45 m/s, 179° | 0 W/m² | - |
| 1778027277 | 22.78° C | 57% | 1016.1 hPa | 0 mm | 0 m/s | 0 W/m² | - |
| 1778026973 | 22.78° C | 56% | 1015.9 hPa | 0 mm | 0.45 m/s, 159° | 0 W/m² | - |
| 1778026669 | 22.78° C | 56% | 1015.6 hPa | 0 mm | 0.45 m/s, 163° | 0 W/m² | - |
| 1778026367 | 22.78° C | 56% | 1015.7 hPa | 0 mm | 0 m/s | 0 W/m² | - |
| 1778026063 | 23.33° C | 54% | 1015.6 hPa | 0 mm | 0.45 m/s, 160° | 0 W/m² | - |
| 1778025761 | 23.33° C | 52% | 1015.4 hPa | 0 mm | 0.45 m/s, 162° | 0 W/m² | - |
| 1778025458 | 23.33° C | 51% | 1015.4 hPa | 0 mm | 0.45 m/s, 164° | 0 W/m² | - |
| 1778025155 | 23.89° C | 51% | 1015.6 hPa | 0 mm | 0.45 m/s, 167° | 1 W/m² | - |
| 1778024852 | 23.89° C | 51% | 1015.3 hPa | 0 mm | 0 m/s | 1 W/m² | - |
| 1778024549 | 23.89° C | 50% | 1015.2 hPa | 0 mm | 0.45 m/s, 176° | 1 W/m² | - |
| 1778024246 | 23.89° C | 50% | 1015.5 hPa | 0 mm | 0 m/s | 1 W/m² | - |
| 1778023944 | 24.44° C | 49% | 1015.2 hPa | 0 mm | 0.89 m/s, 159° | 2 W/m² | - |
| 1778023641 | 24.44° C | 48% | 1015.4 hPa | 0 mm | 0 m/s | 2 W/m² | - |
| 1778023338 | 24.44° C | 49% | 1015.5 hPa | 0 mm | 0.45 m/s, 167° | 3 W/m² | - |
| 1778023035 | 24.44° C | 47% | 1015.4 hPa | 0 mm | 0.45 m/s, 177° | 3 W/m² | - |
| 1778022734 | 25° C | 47% | 1015.4 hPa | 0 mm | 0.45 m/s, 186° | 4 W/m² | - |
| 1778022432 | 25° C | 47% | 1015.4 hPa | 0 mm | 0.45 m/s, 186° | 5 W/m² | - |
| 1778022128 | 25° C | 48% | 1015.3 hPa | 0 mm | 0.45 m/s, 184° | 5 W/m² | - |
| 1778021824 | 25° C | 45% | 1015.5 hPa | 0 mm | 0.45 m/s, 184° | 6 W/m² | - |
| 1778021521 | 25° C | 46% | 1015.3 hPa | 0 mm | 0.89 m/s, 160° | 6 W/m² | - |
| 1778021216 | 25° C | 48% | 1015.3 hPa | 0 mm | 0.45 m/s, 160° | 6 W/m² | - |
* Rain latest hour (hover to see other rain measurements)
** Current wind speed in m/s (hover to see current wind gust speed)